Terug naar catalogus

CZ-4 DEB

ActiefSSO
NORAD 20858·DEBRIS·🇨🇳 China

Gelanceerd Sep 3, 1990 vanaf Taiyuan Satellite Launch Center

Loading…

Volgende Passages (komende 24 uur)

TLE

VersSource: Space-Track

Epoch: Sep 14, 2026, 09:17 UTC

1 20858U 90081W   26257.38742951  .00002134  00000-0  46567-3 0  9993
2 20858  98.2386 295.4222 0029191 175.4698 197.1558 14.58624423878906

Volg CZ-4 DEB in realtime met AllMySat

Download on the App Store